Weather History for Galesburg, IL

Change the Weather History Date:

Saturday, July 20, 2013

  Actual Average Record
Temperature  
Mean Temperature 78 °F -  
Max Temperature 87 °F 86 °F 100 °F (1983)
Min Temperature 68 °F 67 °F 53 °F (1971)
Cooling Degree Days 12    
Growing Degree Days 28 (Base 50)    
Moisture  
Dew Point 63 °F    
Average Humidity 62    
Maximum Humidity 89    
Minimum Humidity 35    
Precipitation  
Precipitation 0.00 in - - ()
Sea Level Pressure  
Sea Level Pressure 29.91 in    
Wind  
Wind Speed 4 mph (NNE)    
Max Wind Speed 13 mph    
Max Gust Speed 17 mph    
Visibility 10 miles    
Events      
Averages and records for this station are not official NWS values.
T = Trace of Precipitation, MM = Missing Value Source: NWS Daily Summary

Daily Weather History Graph

Daily Weather History Graph

Search for Another Location

Airport:

Trip Planner

Search our weather history database for the weather conditions in past years. The results will help you decide how hot, cold, wet, or windy it might be!

Date:

Astronomy

Jul. 20, 2013 Rise Set
Actual Time 5:47 AM CDT 8:28 PM CDT
Civil Twilight 5:15 AM CDT 9:00 PM CDT
Nautical Twilight 4:34 AM CDT 9:40 PM CDT
Astronomical Twilight 3:49 AM CDT 10:25 PM CDT
Moon 6:32 PM CDT (7/20) 3:27 AM CDT (7/20)
Length of Visible Light 15h 45m
Length of Day
14h 41m
Waxing Gibbous, 94% of the Moon is Illuminated
Jul 20
Waxing Gibbous
Jul 22
Full
Jul 29
Last Quarter
Aug 6
New
Aug 14
First Quarter

Hourly Weather History & Observations

Time (CDT) Temp. Heat Index Dew Point Humidity Pressure Visibility Wind Dir Wind Speed Gust Speed Precip Events Conditions
12:15 AM 76.5 °F - 70.3 °F 81% 29.87 in 10.0 mi WNW 3.5 mph - N/A   Clear
12:35 AM 77.2 °F - 69.1 °F 76% 29.87 in 10.0 mi WNW 4.6 mph - N/A   Clear
12:55 AM 77.0 °F - 68.4 °F 75% 29.87 in 10.0 mi NW 3.5 mph - N/A   Scattered Clouds
1:15 AM 75.7 °F - 68.0 °F 77% 29.87 in 10.0 mi North 3.5 mph - N/A   Scattered Clouds
1:35 AM 74.5 °F - 67.5 °F 79% 29.86 in 10.0 mi North 3.5 mph - N/A   Scattered Clouds
1:55 AM 75.2 °F - 67.5 °F 77% 29.87 in 10.0 mi Calm Calm - N/A   Mostly Cloudy
2:15 AM 75.0 °F - 67.5 °F 77% 29.87 in 10.0 mi Calm Calm - N/A   Mostly Cloudy
2:35 AM 74.1 °F - 67.6 °F 80% 29.87 in 10.0 mi Calm Calm - N/A   Mostly Cloudy
2:55 AM 72.9 °F - 67.3 °F 83% 29.87 in 10.0 mi Calm Calm - N/A   Scattered Clouds
3:15 AM 72.1 °F - 67.3 °F 85% 29.86 in 10.0 mi Calm Calm - N/A   Scattered Clouds
3:35 AM 72.0 °F - 67.1 °F 85% 29.86 in 10.0 mi NW 3.5 mph - N/A   Scattered Clouds
3:55 AM 72.0 °F - 66.9 °F 84% 29.88 in 10.0 mi Calm Calm - N/A   Mostly Cloudy
4:15 AM 71.6 °F - 67.5 °F 87% 29.87 in 10.0 mi Calm Calm - N/A   Overcast
4:35 AM 72.1 °F - 67.1 °F 84% 29.87 in 10.0 mi Calm Calm - N/A   Overcast
4:55 AM 72.5 °F - 66.7 °F 82% 29.87 in 10.0 mi North 4.6 mph - N/A   Overcast
5:15 AM 71.2 °F - 66.4 °F 85% 29.88 in 10.0 mi Calm Calm - N/A   Overcast
5:35 AM 70.7 °F - 65.5 °F 83% 29.88 in 10.0 mi North 4.6 mph - N/A   Mostly Cloudy
5:55 AM 69.8 °F - 64.6 °F 83% 29.89 in 10.0 mi Calm Calm - N/A   Scattered Clouds
6:15 AM 69.6 °F - 64.4 °F 83% 29.89 in 10.0 mi NNW 3.5 mph - N/A   Scattered Clouds
6:35 AM 70.7 °F - 64.4 °F 80% 29.89 in 10.0 mi NNW 4.6 mph - N/A   Scattered Clouds
6:55 AM 71.8 °F - 64.4 °F 77% 29.90 in 10.0 mi North 4.6 mph - N/A   Scattered Clouds
7:15 AM 72.5 °F - 64.4 °F 76% 29.91 in 10.0 mi North 6.9 mph - N/A   Scattered Clouds
7:35 AM 73.0 °F - 64.6 °F 75% 29.91 in 10.0 mi North 5.8 mph - N/A   Scattered Clouds
7:55 AM 75.0 °F - 63.5 °F 67% 29.91 in 10.0 mi NNE 6.9 mph - N/A   Clear
8:15 AM 76.1 °F - 62.6 °F 63% 29.91 in 10.0 mi NE 8.1 mph - N/A   Clear
8:35 AM 77.5 °F - 61.7 °F 58% 29.91 in 10.0 mi NE 8.1 mph - N/A   Clear
8:55 AM 78.6 °F - 62.1 °F 57% 29.91 in 10.0 mi NNE 9.2 mph - N/A   Clear
9:15 AM 79.2 °F - 61.9 °F 55% 29.92 in 10.0 mi NNE 11.5 mph - N/A   Clear
9:35 AM 80.4 °F 81.5 °F 61.9 °F 53% 29.92 in 10.0 mi NNE 9.2 mph - N/A   Clear
9:55 AM 81.3 °F 82.2 °F 61.7 °F 51% 29.92 in 10.0 mi NNE 8.1 mph - N/A   Clear
10:15 AM 82.0 °F 82.4 °F 60.1 °F 47% 29.93 in 10.0 mi NNE 9.2 mph - N/A   Clear
10:35 AM 82.6 °F 82.6 °F 59.4 °F 45% 29.93 in 10.0 mi North 8.1 mph - N/A   Clear
10:55 AM 83.3 °F 83.4 °F 59.7 °F 45% 29.94 in 10.0 mi North 8.1 mph - N/A   Clear
11:15 AM 84.2 °F 84.2 °F 60.3 °F 44% 29.94 in 10.0 mi NE 8.1 mph - N/A   Clear
11:35 AM 84.2 °F 83.8 °F 58.6 °F 42% 29.94 in 10.0 mi NNE 5.8 mph - N/A   Clear
11:55 AM 84.9 °F 84.2 °F 58.1 °F 40% 29.94 in 10.0 mi North 8.1 mph - N/A   Clear
12:15 PM 84.9 °F 84.4 °F 58.5 °F 41% 29.94 in 10.0 mi North 12.7 mph 17.3 mph N/A   Clear
12:35 PM 85.1 °F 84.4 °F 58.3 °F 40% 29.94 in 10.0 mi NNE 11.5 mph - N/A   Clear
12:55 PM 86.0 °F 85.2 °F 58.6 °F 39% 29.94 in 10.0 mi NNE 5.8 mph - N/A   Clear
1:15 PM 86.5 °F 85.6 °F 58.3 °F 38% 29.94 in 10.0 mi NNE 11.5 mph - N/A   Clear
1:35 PM 86.9 °F 85.5 °F 56.5 °F 35% 29.93 in 10.0 mi North 10.4 mph - N/A   Clear
1:55 PM 87.3 °F 86.3 °F 58.1 °F 37% 29.93 in 10.0 mi North 4.6 mph 9.2 mph N/A   Clear
2:15 PM 87.1 °F 85.9 °F 57.4 °F 36% 29.92 in 10.0 mi NE 8.1 mph - N/A   Clear
2:35 PM 86.5 °F 85.6 °F 58.1 °F 38% 29.91 in 10.0 mi NE 9.2 mph - N/A   Clear
2:55 PM 86.5 °F 85.4 °F 57.2 °F 37% 29.91 in 10.0 mi North 8.1 mph - N/A   Clear
3:15 PM 86.5 °F 85.3 °F 56.8 °F 36% 29.90 in 10.0 mi North 6.9 mph - N/A   Clear
3:35 PM 87.1 °F 86.1 °F 57.6 °F 37% 29.91 in 10.0 mi Calm Calm - N/A   Clear
3:55 PM 87.3 °F 86.7 °F 59.4 °F 39% 29.90 in 10.0 mi NE 6.9 mph - N/A   Clear
4:15 PM 87.8 °F 87.1 °F 59.0 °F 38% 29.89 in 10.0 mi North 6.9 mph - N/A   Clear
4:35 PM 86.7 °F 85.6 °F 57.7 °F 37% 29.89 in 10.0 mi NNE 3.5 mph - N/A   Clear
4:55 PM 87.3 °F 86.7 °F 59.7 °F 39% 29.89 in 10.0 mi NNW 6.9 mph - N/A   Clear
5:15 PM 85.8 °F 85.7 °F 60.1 °F 42% 29.88 in 10.0 mi North 10.4 mph - N/A   Clear
5:35 PM 85.8 °F 85.4 °F 59.9 °F 41% 29.89 in 10.0 mi North 8.1 mph - N/A   Clear
5:55 PM 85.6 °F 85.7 °F 60.6 °F 43% 29.89 in 10.0 mi NNE 6.9 mph - N/A   Clear
6:15 PM 84.7 °F 85.2 °F 61.7 °F 46% 29.90 in 10.0 mi NE 6.9 mph - N/A   Clear
6:35 PM 84.2 °F 85.0 °F 62.4 °F 48% 29.89 in 10.0 mi ENE 3.5 mph - N/A   Clear
6:55 PM 83.5 °F 84.1 °F 61.7 °F 48% 29.90 in 10.0 mi NNE 5.8 mph - N/A   Clear
7:15 PM 82.9 °F 84.0 °F 63.0 °F 51% 29.90 in 10.0 mi NE 4.6 mph - N/A   Clear
7:35 PM 79.5 °F - 61.9 °F 55% 29.91 in 10.0 mi ENE 4.6 mph - N/A   Clear
7:55 PM 77.5 °F - 64.6 °F 64% 29.92 in 10.0 mi NE 3.5 mph - N/A   Clear
8:15 PM 76.8 °F - 63.9 °F 64% 29.93 in 10.0 mi Calm Calm - N/A   Clear
8:35 PM 74.3 °F - 65.5 °F 74% 29.93 in 10.0 mi Calm Calm - N/A   Clear
8:55 PM 73.4 °F - 63.5 °F 71% 29.93 in 10.0 mi Calm Calm - N/A   Clear
9:15 PM 72.5 °F - 64.2 °F 75% 29.92 in 10.0 mi Calm Calm - N/A   Clear
9:35 PM 72.7 °F - 64.4 °F 75% 29.93 in 10.0 mi Calm Calm - N/A   Clear
9:55 PM 73.8 °F - 63.7 °F 71% 29.93 in 10.0 mi Calm Calm - N/A   Clear
10:15 PM 71.1 °F - 64.4 °F 79% 29.93 in 10.0 mi Calm Calm - N/A   Clear
10:35 PM 70.9 °F - 64.2 °F 79% 29.93 in 10.0 mi Calm Calm - N/A   Clear
10:55 PM 69.4 °F - 64.4 °F 84% 29.93 in 10.0 mi Calm Calm - N/A   Clear
11:15 PM 68.7 °F - 64.4 °F 86% 29.93 in 10.0 mi Calm Calm - N/A   Clear
11:35 PM 68.9 °F - 64.2 °F 85% 29.94 in 10.0 mi Calm Calm - N/A   Clear
11:55 PM 68.0 °F - 64.6 °F 89% 29.94 in 10.0 mi Calm Calm - N/A   Clear